Location: Holbach
(51.5399°N, 10.6036°E)
Time: 13:03:34
(UTC+00:00)

ATLAS CENTAUR R/B - Visible Passes

Search period start: 16 January 2021 00:00
Search period end: 26 January 2021 00:00
Orbit: 477 x 668 km, 64.7° (Epoch: 12 January)

Date Brightness Start Highest point End Pass type
(mag) Time Alt. Az. Time Alt. Az. Time Alt. Az.
18 Jan 4.7 05:48:11 10° SE 05:49:49 13° ESE 05:51:26 10° E visible
19 Jan 4.3 05:49:25 10° SSE 05:52:01 18° ESE 05:54:37 10° ENE visible
20 Jan 3.5 05:51:08 10° S 05:54:16 27° ESE 05:57:24 10° ENE visible
21 Jan 2.6 05:53:06 10° SSW 05:56:32 39° SE 06:00:00 10° NE visible
22 Jan 1.7 05:55:15 10° SSW 05:58:52 59° SE 06:02:29 10° NE visible
23 Jan 4.4 04:21:49 10° SE 04:23:00 11° ESE 04:24:10 10° E visible
23 Jan 1.0 05:57:33 10° SW 06:01:14 87° SE 06:04:56 10° NE visible
24 Jan 3.9 04:22:47 10° SSE 04:25:12 17° ESE 04:27:35 10° ENE visible
24 Jan 1.0 05:59:58 10° SW 06:03:38 65° NW 06:07:18 10° NE visible
25 Jan 3.3 04:25:10 14° SSE 04:27:24 24° ESE 04:30:26 10° ENE visible
25 Jan 1.3 06:02:31 10° WSW 06:06:03 45° NW 06:09:39 10° NE visible
